Probability
0 1 2 2 2 1 0 0 0 0 0 0 0 0 0 0 0 0 0 0 0 0 0 0 0 0 0 0 0 0 0 0 0 0 0 0 0 0 0 0 0 1 3
1 2 3 3 3 2 0 0 0 0 0 0 0 0 0 0 0 0 0 0 0 0 0 0 0 0 0 0 0 0 0 0 0 0 0 0 0 0 0 0 0 1 2
1 2 4 4 4 2 0 0 0 0 0 0 0 0 0 0 0 0 0 0 0 0 0 0 0 0 0 0 0 0 0 0 0 0 0 0 0 0 0 0 0 1 1
3 3 4 4 3 1 0 0 0 0 0 1 1 1 0 0 0 0 0 0 0 0 0 0 0 0 0 0 0 0 0 0 0 0 0 0 0 0 0 0 0 0 0
7 6 5 4 4 3 1 0 1 1 1 1 2 1 0 0 0 0 0 0 0 0 0 0 0 0 0 0 0 0 1 1 0 0 0 0 0 0 0 0 0 0 0
8 8 8 7 6 4 2 1 1 1 1 1 2 1 0 0 0 0 1 1 1 1 1 1 1 1 1 0 0 1 2 2 1 1 0 0 0 0 0 0 0 0 0
6 8 10 10 7 4 3 2 2 1 0 1 2 1 1 1 1 1 2 2 2 2 2 2 2 2 2 1 0 1 3 3 3 2 1 1 1 0 1 1 0 0 0
4 7 10 10 7 4 3 3 2 1 0 1 2 2 2 2 2 2 2 2 2 2 2 2 2 2 2 2 1 2 3 3 3 3 3 2 2 2 2 2 1 1 0
4 7 9 9 8 5 4 4 3 1 0 1 2 1 1 1 1 1 1 1 1 1 1 1 1 1 2 2 1 1 2 2 3 3 3 3 4 4 4 3 3 2 1
6 7 8 8 7 6 5 6 5 3 1 1 1 0 0 0 0 0 0 0 0 0 0 1 1 1 2 2 2 1 1 1 1 2 2 3 4 5 5 4 3 3 2
6 6 7 7 7 6 7 8 6 3 1 1 1 1 1 0 0 0 0 0 0 0 0 0 0 1 1 1 1 1 2 1 1 1 1 1 2 3 4 4 4 4 4
4 5 6 6 7 7 8 8 7 3 1 2 2 2 2 1 1 0 0 0 0 0 0 0 0 0 0 0 0 1 1 1 1 2 2 1 1 2 4 6 5 4 4
3 3 4 6 7 7 7 7 6 3 2 2 4 4 3 3 2 1 1 1 1 0 1 1 1 1 1 1 1 0 0 0 1 1 2 2 1 2 4 6 6 5 4
5 4 4 5 6 6 6 6 5 4 3 3 5 5 4 4 4 3 3 3 3 2 2 2 2 2 3 3 2 1 1 1 0 0 1 1 1 3 4 6 8 7 6
7 6 5 5 5 5 5 4 4 3 4 5 6 7 7 8 9 8 7 7 6 6 5 5 4 3 3 3 3 3 3 3 1 1 1 2 3 4 5 6 8 9 9
7 7 6 5 5 5 4 3 3 3 5 7 8 8 11 13 13 13 12 11 10 9 9 8 7 4 2 1 1 3 4 4 3 2 3 4 4 4 4 4 5 6 7
7 7 6 5 5 4 3 3 3 4 6 8 8 10 12 14 14 14 14 12 11 11 10 11 10 7 4 2 1 1 3 4 3 3 3 4 3 3 3 2 2 2 2
6 5 3 3 4 4 2 2 4 5 7 9 9 10 12 13 13 13 13 12 11 10 10 10 10 8 6 3 1 0 2 3 3 2 2 2 1 1 1 1 1 0 0
4 3 1 2 3 4 2 2 5 6 7 9 10 10 12 13 13 13 12 11 10 9 9 9 8 7 6 3 1 0 1 2 1 1 1 1 0 0 0 0 0 0 0
4 2 1 1 2 3 2 2 4 5 6 7 8 8 10 11 12 12 11 10 9 7 6 6 6 5 3 2 0 0 1 1 0 0 0 0 0 0 0 0 0 0 0
4 3 1 1 1 1 1 1 2 3 3 4 4 5 6 8 10 10 10 9 7 5 3 3 2 1 1 0 0 0 0 0 0 1 1 0 0 0 0 0 0 0 0
4 3 3 2 1 0 0 0 0 1 1 1 1 1 3 6 8 10 11 10 8 4 2 1 0 0 0 0 0 0 0 0 0 1 1 0 0 0 0 0 0 0 0
3 3 3 3 1 1 0 0 0 0 0 1 1 1 2 4 7 9 10 10 8 5 3 1 0 0 0 0 0 0 0 0 0 1 1 0 0 0 0 0 0 0 0
1 1 2 2 2 1 1 0 0 0 0 2 3 2 2 2 4 6 7 7 6 5 4 2 0 0 0 0 0 0 0 0 0 0 0 0 0 0 0 0 0 0 0
0 0 1 1 1 1 2 1 0 1 1 3 4 3 1 2 2 2 2 3 4 3 3 2 1 0 0 0 0 0 0 0 0 0 0 0 0 0 0 0 0 0 0
0 0 0 0 0 1 2 2 1 2 2 3 3 2 1 1 1 1 1 1 2 2 2 2 1 0 0 0 0 0 0 0 0 0 0 0 0 0 0 0 0 0 0
Wind_Speed
2 1 1 1 1 0 1 1 1 1 1 1 1 1 1 1 1 1 1 1 1 0 1 0 1 1 0 0 1 1 0 1 1 1 1 1 0 1 1 1 1 1 2
1 2 1 1 1 1 1 1 1 1 1 0 1 1 0 0 0 1 1 1 1 0 0 0 0 0 1 1 1 1 1 0 1 1 1 1 1 1 0 1 1 1 1
5 3 2 2 1 1 1 1 0 0 1 1 1 1 1 1 2 2 2 1 1 1 1 1 1 1 1 0 0 0 1 0 0 1 1 1 1 1 1 1 1 1 1
5 4 3 3 3 2 1 0 0 0 1 1 1 1 1 0 1 1 1 2 2 1 1 1 1 1 1 0 0 0 0 1 0 0 0 1 1 1 1 1 1 1 1
6 5 5 4 3 2 2 1 1 1 1 1 1 1 0 0 0 1 2 2 2 2 1 1 1 1 1 1 0 0 1 1 1 1 0 1 1 1 1 1 1 1 1
4 4 3 3 2 1 1 1 1 0 1 1 1 1 1 1 1 1 1 1 1 2 2 2 1 1 1 0 0 0 1 1 1 1 1 1 1 1 1 1 1 2 2
5 4 3 3 2 1 1 1 1 0 0 1 1 0 1 1 1 1 0 0 1 1 2 2 1 1 1 1 0 1 0 1 1 1 1 1 1 1 1 1 1 1 2
5 4 4 3 2 2 1 1 1 1 0 1 1 0 1 1 0 0 0 0 1 1 1 1 1 1 1 1 1 1 0 0 0 0 1 1 1 1 1 2 1 1 1
5 4 4 4 3 2 2 2 1 0 0 1 1 1 1 1 1 1 1 1 1 1 2 2 2 2 2 2 1 1 1 0 0 1 1 1 1 1 1 1 2 2 2
3 4 4 4 3 3 2 1 2 1 1 1 1 1 1 1 1 2 2 2 2 2 2 3 2 2 2 2 2 1 1 1 1 1 1 1 1 1 1 1 1 2 2
4 4 3 3 3 2 2 1 1 1 1 1 1 1 1 1 2 2 1 1 2 2 2 2 2 2 3 2 2 2 2 1 1 1 1 1 1 1 1 1 1 1 2
3 3 3 3 2 2 2 2 1 1 1 1 1 1 1 1 2 1 2 2 2 2 2 2 2 2 2 2 2 2 2 2 2 2 1 2 1 2 1 1 1 1 1
3 2 2 3 3 3 2 2 2 1 1 2 2 1 1 1 1 1 1 1 2 2 2 2 2 2 2 2 2 1 1 1 2 1 1 2 1 2 1 1 1 1 1
4 3 2 2 2 3 3 2 1 1 2 2 2 1 0 1 1 1 1 1 1 1 2 2 2 1 1 1 2 1 1 2 2 2 2 2 2 2 2 2 1 1 0
3 4 4 2 2 2 2 2 1 1 2 2 1 1 0 0 1 1 1 1 1 1 1 2 2 2 1 1 1 1 1 2 2 2 2 2 2 2 2 2 2 1 1
4 4 3 3 3 3 3 2 2 1 2 2 1 0 0 1 1 1 1 1 1 1 1 1 1 2 2 2 2 1 1 2 2 3 3 3 2 3 2 2 2 2 3
3 3 3 3 3 3 3 3 2 2 2 1 0 0 0 0 1 0 1 1 1 1 1 1 1 2 3 3 2 2 1 2 2 3 3 2 3 3 2 2 3 2 1
4 3 3 3 2 2 2 2 2 2 2 1 1 0 0 1 1 0 1 1 1 0 1 1 2 2 3 4 3 2 1 2 2 3 2 2 3 3 2 2 2 2 2
4 3 3 3 3 3 3 3 2 2 1 1 1 1 1 1 1 1 2 1 1 1 1 1 2 2 4 4 4 2 1 2 3 3 2 2 2 4 3 2 1 2 2
3 3 3 4 3 2 3 3 2 1 1 1 1 1 1 1 1 2 2 1 1 1 1 2 2 2 3 5 4 2 1 2 3 3 3 3 3 4 3 1 1 2 3
4 4 4 3 2 2 3 3 1 1 2 1 1 1 1 2 2 2 1 1 1 1 1 2 2 2 3 4 4 2 1 1 2 2 3 3 5 5 4 3 2 3 2
4 4 4 2 1 2 3 2 2 2 1 1 0 1 1 2 1 1 1 0 0 1 1 2 3 3 3 3 3 3 2 2 2 2 3 3 5 6 5 3 2 3 1
4 3 4 2 1 1 2 2 2 1 1 1 0 1 1 1 1 1 1 1 0 1 1 1 2 3 3 3 3 3 4 3 2 2 3 5 5 5 4 3 2 1 1
3 3 3 2 1 1 2 2 2 1 1 1 1 1 1 1 1 1 1 1 1 1 2 2 2 3 3 3 2 2 2 3 2 3 3 4 4 3 3 3 2 1 0
3 3 3 3 2 1 1 1 1 2 2 1 0 1 1 1 1 1 1 1 2 3 3 2 2 2 3 4 3 2 2 2 2 2 2 2 3 3 3 2 2 1 1
3 3 3 2 2 1 1 1 1 2 2 1 1 1 1 1 1 1 2 2 2 3 3 4 3 3 4 5 4 4 4 3 3 1 2 2 2 3 3 2 2 2 2
Wind_Direction
223 206 197 151 82 75 124 119 73 11 36 31 355 343 320 328 356 341 336 336 356 100 132 326 18 45 73 73 62 62 34 49 88 92 38 11 148 167 179 189 195 213 216
206 203 183 136 130 139 120 87 47 16 22 342 287 249 247 288 336 351 4 11 32 57 145 96 57 78 71 48 55 72 69 60 85 104 99 20 352 342 259 192 198 218 217
207 206 198 193 174 182 196 208 230 32 9 10 30 25 34 24 22 13 6 1 45 60 55 40 53 63 101 195 186 94 130 122 40 73 133 145 233 318 332 289 250 227 213
203 197 198 198 197 205 192 181 316 18 37 69 70 92 104 4 320 350 359 1 28 48 52 41 47 55 63 98 252 116 114 122 155 358 72 146 158 165 306 316 301 249 218
198 196 198 199 201 192 161 136 51 1 17 64 95 101 123 213 9 33 25 17 9 16 27 38 44 39 27 359 358 84 127 144 162 172 160 97 73 109 173 275 316 329 282
194 197 193 174 181 163 140 123 120 38 22 56 67 80 120 122 85 36 10 5 360 5 14 21 14 6 11 329 298 185 170 168 167 161 137 143 150 181 176 212 284 302 300
180 178 167 161 167 164 162 138 144 259 351 70 86 120 157 143 145 201 271 357 2 352 355 16 7 3 354 346 40 115 153 180 174 174 190 188 200 161 167 179 239 284 312
174 176 175 165 166 165 163 147 175 233 235 176 198 155 135 131 131 100 55 349 308 303 339 10 12 11 20 23 44 63 17 52 199 218 212 216 246 185 181 188 192 242 297
170 173 168 164 169 167 172 160 143 104 20 176 151 104 94 98 87 56 50 12 332 338 17 24 20 15 25 28 47 50 8 22 258 257 242 239 261 224 219 205 198 192 227
166 166 167 172 174 171 168 129 132 138 88 76 104 93 76 74 74 73 44 25 13 17 23 23 21 17 24 30 43 30 360 13 328 286 271 273 265 263 244 219 215 209 207
176 171 167 165 162 149 142 137 131 112 85 73 75 68 57 61 60 53 32 26 27 37 36 31 33 25 19 20 32 22 20 16 351 332 309 290 277 276 274 246 216 217 207
171 161 157 145 140 145 150 152 151 144 145 127 107 87 56 55 53 31 17 26 24 21 26 38 36 15 12 15 22 11 10 5 341 323 316 305 308 306 295 270 241 233 223
159 150 147 153 160 162 163 168 173 177 145 119 108 81 46 33 21 4 4 24 28 26 33 36 20 0 360 3 354 349 346 351 334 325 305 298 302 298 302 280 256 252 242
163 164 171 181 177 171 171 174 180 164 129 116 108 91 357 340 337 346 13 24 44 41 29 17 360 349 351 351 338 344 346 339 330 324 313 305 278 261 261 262 253 232 210
175 183 187 186 177 167 165 162 157 140 133 128 129 218 272 358 15 19 25 36 41 35 29 17 6 355 353 345 344 332 336 326 329 329 325 317 306 289 276 265 247 214 203
189 189 181 168 168 171 170 161 158 151 135 137 183 236 46 42 7 343 21 33 29 26 32 8 0 350 340 347 342 326 305 307 301 310 321 324 335 332 318 304 269 229 212
182 177 175 172 173 174 167 167 176 149 133 147 174 39 64 9 314 319 20 1 7 34 11 346 342 319 318 335 320 313 293 294 291 296 309 325 342 349 340 354 351 325 279
167 162 154 152 151 150 154 150 139 138 146 153 192 220 194 251 284 352 326 312 308 324 316 329 325 315 325 340 330 320 306 311 307 303 297 305 321 336 349 5 3 338 310
165 157 147 139 134 140 147 134 128 135 143 188 228 233 215 229 264 286 279 280 301 315 321 327 319 311 318 337 338 354 330 326 321 321 326 324 322 334 353 2 338 326 315
127 127 116 109 117 131 131 131 144 148 195 234 244 241 207 215 236 252 260 275 278 283 308 330 328 323 324 341 345 358 350 336 327 328 330 339 333 327 323 308 302 298 295
130 126 122 126 141 138 132 141 161 210 226 220 219 254 239 227 231 245 256 290 306 326 329 332 333 335 330 334 343 341 335 298 310 320 323 323 330 323 311 294 266 265 286
130 130 129 133 135 129 130 149 219 235 201 156 196 274 284 270 254 242 278 288 276 333 326 332 332 330 327 333 339 342 326 318 299 302 312 318 329 326 316 299 288 293 309
145 139 138 136 124 140 152 187 245 231 110 108 255 297 318 323 314 243 256 281 269 272 298 306 310 315 321 323 332 335 328 322 306 299 312 318 322 324 323 324 324 357 52
147 135 130 148 198 221 200 209 229 176 140 154 275 314 341 341 340 313 254 236 256 263 273 279 287 299 311 313 324 331 330 331 319 312 321 325 329 335 337 344 350 6 38
147 143 155 177 212 212 229 243 203 150 148 166 245 335 343 330 327 317 290 260 253 239 240 250 253 272 291 292 294 303 309 315 315 325 333 350 351 354 348 342 342 342 344
159 156 162 180 211 208 238 256 215 163 162 190 234 236 250 289 300 319 330 330 281 284 252 235 235 255 262 291 302 300 296 299 319 352 329 325 323 320 316 315 321 321 311